TimeCST,TemperatureF,Dew PointF,Humidity,Sea Level PressureIn,VisibilityMPH,Wind Direction,Wind SpeedMPH,Gust SpeedMPH,PrecipitationIn,Events,Conditions,WindDirDegrees,DateUTC
12:53 AM,28.9,25.0,85,30.55,10.0,North,5.8,-,N/A,,Clear,350,2013-12-24 06:53:00
1:53 AM,30.9,27.0,85,30.56,10.0,North,4.6,-,N/A,,Clear,350,2013-12-24 07:53:00
2:53 AM,30.9,27.0,85,30.56,10.0,North,3.5,-,N/A,,Clear,360,2013-12-24 08:53:00
3:53 AM,30.0,26.1,85,30.58,10.0,North,4.6,-,N/A,,Clear,360,2013-12-24 09:53:00
4:53 AM,30.9,26.1,82,30.58,10.0,NNE,5.8,-,N/A,,Clear,20,2013-12-24 10:53:00
5:53 AM,28.0,25.0,88,30.59,10.0,North,5.8,-,N/A,,Clear,10,2013-12-24 11:53:00
6:53 AM,28.9,26.1,89,30.60,9.0,NNE,4.6,-,N/A,,Clear,30,2013-12-24 12:53:00
7:53 AM,30.9,27.0,85,30.61,8.0,NNE,4.6,-,N/A,,Clear,20,2013-12-24 13:53:00
8:53 AM,33.1,28.0,82,30.63,8.0,NE,10.4,-,N/A,,Clear,40,2013-12-24 14:53:00
9:41 AM,33.8,28.4,81,30.61,9.0,NE,12.7,-,N/A,,Mostly Cloudy,50,2013-12-24 15:41:00
9:53 AM,33.1,27.0,78,30.64,9.0,NNE,10.4,-,N/A,,Scattered Clouds,20,2013-12-24 15:53:00
10:00 AM,35.6,28.4,75,30.61,9.0,ENE,10.4,-,N/A,,Mostly Cloudy,60,2013-12-24 16:00:00
10:13 AM,33.8,26.6,75,30.61,9.0,NNE,11.5,-,N/A,,Scattered Clouds,30,2013-12-24 16:13:00
10:53 AM,36.0,28.0,73,30.63,10.0,NNE,12.7,-,N/A,,Scattered Clouds,30,2013-12-24 16:53:00
11:53 AM,37.0,28.0,70,30.62,10.0,North,6.9,-,N/A,,Scattered Clouds,10,2013-12-24 17:53:00
12:53 PM,37.9,26.1,62,30.58,10.0,NNE,6.9,-,N/A,,Clear,20,2013-12-24 18:53:00
1:53 PM,39.0,27.0,62,30.56,10.0,NE,6.9,-,N/A,,Clear,40,2013-12-24 19:53:00
2:53 PM,39.9,26.1,58,30.53,10.0,ENE,8.1,-,N/A,,Clear,70,2013-12-24 20:53:00
3:53 PM,39.0,26.1,60,30.51,10.0,NE,5.8,-,N/A,,Clear,50,2013-12-24 21:53:00
4:53 PM,37.9,27.0,65,30.51,10.0,ENE,4.6,-,N/A,,Clear,70,2013-12-24 22:53:00
5:53 PM,34.0,27.0,75,30.50,10.0,NE,3.5,-,N/A,,Clear,40,2013-12-24 23:53:00
6:53 PM,32.0,28.9,88,30.49,10.0,Calm,Calm,-,N/A,,Clear,0,2013-12-25 00:53:00
7:53 PM,32.0,28.9,88,30.48,10.0,NNE,3.5,-,N/A,,Clear,20,2013-12-25 01:53:00
8:53 PM,30.9,27.0,85,30.48,10.0,Calm,Calm,-,N/A,,Clear,0,2013-12-25 02:53:00
9:53 PM,28.9,26.1,89,30.46,10.0,Calm,Calm,-,N/A,,Clear,0,2013-12-25 03:53:00
10:53 PM,30.9,27.0,85,30.46,10.0,Calm,Calm,-,N/A,,Clear,0,2013-12-25 04:53:00
11:53 PM,28.9,26.1,89,30.44,10.0,ENE,3.5,-,N/A,,Clear,70,2013-12-25 05:53:00